Regional Weather Roundup
Issued by NWS Portland, ME

Current Version | Previous Version | Graphics & Text | Print | Product List | Glossary Off
Versions: 1 2 3 4 5 6 7 8 9 10 11 12 13 14 15 16 17 18 19 20 21 22 23 24 25 26 27 28 29 30 31 32 33 34 35 36 37 38 39 40 41 42 43 44 45 46 47 48 49 50
000 ASUS41 KGYX 182210 RWRGYX WEATHER ROUNDUP FOR MAINE AND NEW HAMPSHIRE NATIONAL WEATHER SERVICE GRAY ME 500 PM EST THU JAN 18 2018 MEZ002-005-006-010-012-015-018-020-021-024-026-027-029-182300- MAINE CITY SKY/WX TMP DP RH WIND PRES REMARKS PORTLAND FAIR 28 17 63 VRB6 29.86R SANFORD CLOUDY 25 19 78 CALM 29.85S BAR HARBOR FAIR 22 15 75 CALM 29.84R WISCASSET FAIR 24 20 84 CALM 29.86R ROCKLAND FAIR 24 18 77 CALM 29.85R FRYEBURG CLOUDY 26 19 74 CALM 29.84R LEWISTONAUBURN FAIR 25 17 72 NW3 29.85R AUGUSTA FAIR 27 15 61 NW6 29.83S WATERVILLE FAIR 25 17 72 NW3 29.79R BANGOR FAIR 21 16 81 CALM 29.82R GREENVILLE N/A 20 15 81 NW9G18 29.73S MILLINOCKET FAIR 25 16 68 W13G21 29.78F WCI 14 HOULTON CLOUDY 24 15 68 NW10G17 29.77R WCI 14 PRESQUE ISLE CLOUDY 23 16 74 W7 29.78S FRENCHVILLE CLOUDY 20 14 77 W8 29.73R CARIBOU CLOUDY 24 13 62 NW13 29.75S WCI 12 $$ NHZ002-005-008-009-011-012-014-182300- NEW HAMPSHIRE CITY SKY/WX TMP DP RH WIND PRES REMARKS PORTSMOUTH PTCLDY 26 17 66 CALM 29.84S ROCHESTER FAIR 26 16 65 NW8 29.83S NASHUA FAIR 26 18 71 W9 29.88S MANCHESTER FAIR 27 16 63 NW7 29.86S CONCORD CLOUDY 26 17 68 NW8 29.86S LACONIA CLOUDY 26 16 65 W9G17 29.85 PLYMOUTH MOCLDY 26 17 68 NW7 29.86S BERLIN CLOUDY 23 17 78 VRB5 29.82S WHITEFIELD CLOUDY 23 18 81 CALM 29.85R JAFFREY CLOUDY 25 16 68 VRB6 29.84R KEENE CLOUDY 22 15 75 N6 29.89R LEBANON CLOUDY 27 17 66 NW6 29.87S MT WASHINGTON MOCLDY 23 -4 30 NW40 N/A WCI 3 $$ VTZ005-007-008-182300- VERMONT CITY SKY/WX TMP DP RH WIND PRES REMARKS ST JOHNSBURY N/A 24 19 81 MISG 29.86S MONTPELIER CLOUDY 21 17 84 NW5 29.89R BURLINGTON FLURRIES 24 15 68 SW5 29.92S $$ MAZ007-012-024-CTZ003-RIZ002-NYZ038-NYZ072-182300- SOUTHERN NEW ENGLAND AND NY CITY SKY/WX TMP DP RH WIND PRES REMARKS BOSTON FAIR 29 16 58 NW10 29.89R WCI 20 WORCESTER CLOUDY 24 15 68 NW6 29.84R NANTUCKET FAIR 29 22 75 N13 29.81S WCI 19 PROVIDENCE FAIR 29 16 58 NW9 29.90R HARTFORD FAIR 25 14 63 NW12 29.93R WCI 14 ALBANY FAIR 23 11 60 NW14G22 29.98S WCI 11 NEW YORK CITY FAIR 32 14 47 NW16G24 29.94R $$ ANZ081-ANZ082-ANZ150-NHZ014-MEZ023>029-182300- COASTAL MARINE OBSERVATIONS STATION/POSITION TIME TEMP WIND PRES WAVE AIR SEA DIR/SP/G HT/PER (UTC) (F) (DEG/KT/KT) (MB) (FT/S) MOUNT DESERT ROC 2200 29 330/ 9/ 12 1010.3S MATINICUS ROCK 2100 28 350/ 6/ 8 1009.9R ISLE OF SHOALS 2100 30 10/ 6/ 7 1010.8R JEFFREYS LEDGE 2136 44 N/A 4/10 GEORGES BANK BUO 2050 45 53 1005.2 5/ 8 $$ .............KEY.............. WCI - WIND CHILL TC - TEMPERATURE IN CELSIUS VSB - VISIBILITY IN MILES HX - HEAT INDEX FAIR- INDICATES FEW OR NO CLOUDS BELOW 12,000 FT, WITH NO SIGNIFICANT WEATHER AND/OR OBSTRUCTIONS TO VISIBILITY.

USA.gov is the U.S. government's official web portal to all federal, state and local government web resources and services.